Погода в Пуэрто-Игуасу

Аргентина     25°36′55″S   54°34′38″W
темп.,
°C
ветер,
м/с
пор.,
м/с
влажн.,
%
обл.,
%
осадки,
мм/ч
давл.,
гПа
погр.,
м
13 июня, вс
вс1300:00+11вюв22760 0.0 102041
03:00+10вюв25830 0.0 1020112
06:00+9вюв25840 0.0 1020107
09:00+13в23680 0.0 1021151
12:00+21ссв24460 0.0 1021630
15:00+21с24510 0.0 1018499
18:00+16ссв11750 0.0 101811
21:00+14всв11870 0.0 101914
14 июня, пн
пн1400:00+13всв22920 0.0 102038
03:00+12в12910 0.0 101940
06:00+11в23900 0.0 101960
09:00+15всв13740 0.0 1021146
12:00+21с35530 0.0 1021636
15:00+22с23520 0.0 1018530
18:00+16сз11730 0.0 101811
21:00+15вюв11770 0.0 102013
15 июня, вт
вт1500:00+13юв11860 0.0 102019
03:00+12ююв11920 0.0 102018
06:00+11юв11934 0.0 101921
09:00+15ю11775 0.0 1021132
12:00+22ююз125367 0.0 1020629
15:00+24ююз2346100 0.0 10181190
18:00+18ююз1171100 0.0 101814
21:00+15ю2983100 0.0 1019206
16 июня, ср
ср1600:00+13ююв259389 0.0 1020109
03:00+12ююв269612 0.0 1019147
06:00+11ю259820 0.0 1019149
09:00+13ююв248813 0.0 1020218
12:00+20ю23600 0.0 1020837
15:00+21юз23495 0.0 10181274
18:00+16юз26706 0.0 1018134
21:00+15ю3107197 0.0 1020408
17 июня, чт
чт1700:00+13ююв387997 0.0 1020302
03:00+12ююв258292 0.0 1020166
06:00+12ю248320 0.0 1020172
09:00+13ююв227397 0.0 1022211
12:00+16ю126134 0.0 1022414
15:00+20зюз1147100 0.0 1019865
18:00+15ююз2666100 0.0 1019271
21:00+13ю2771100 0.0 1020243